[Date Prev][Date Next][Thread Prev][Thread Next] - [Date Index][Thread Index][Author Index]
2 Line ISS Keps 10-15
- Subject: [sarex] 2 Line ISS Keps 10-15
- From: "Dave Larsen PhD" <doc@xxxxxxxxxxx>
- Date: Fri, 14 Oct 2005 18:39:55 -0700
ISS
1 25544U 98067A 05287.95561343 .00014671 00000-0 10449-3 0 5523
2 25544 051.6437 007.3350 0001695 100.8076 240.9019 15.74110148394529
----
Via the sarex mailing list at AMSAT.ORG courtesy of AMSAT-NA.
To unsubscribe, send "unsubscribe sarex" to Majordomo@amsat.org
AMSAT Home